Newburgh, NY

12:57 AM EDT on September 25, 2017 (GMT -0400)
Stewart International

Weather History for KSWF - January, 2014

Change the Weather History Date:

Tuesday, January 28, 2014

  Actual Average Record
Temperature  
Mean Temperature 10 °F -  
Max Temperature 14 °F 32 °F 62 °F (1974)
Min Temperature 5 °F 15 °F -15 °F (1987)
Degree Days  
Heating Degree Days 56    
Moisture  
Dew Point -4 °F    
Average Humidity 52    
Maximum Humidity 72    
Minimum Humidity 38    
Precipitation  
Precipitation 0.00 in - - ()
Sea Level Pressure  
Sea Level Pressure 30.26 in    
Wind  
Wind Speed 11 mph (West)    
Max Wind Speed 17 mph    
Max Gust Speed 29 mph    
Visibility 14 miles    
Events      
Averages and records for this station are not official NWS values.
T = Trace of Precipitation, MM = Missing Value Source: NWS Daily Summary

Daily Weather History Graph

Daily Weather History Graph

Search for Another Location

Airport or City:

Trip Planner

Search our weather history database for the weather conditions in past years. The results will help you decide how hot, cold, wet, or windy it might be!

Date:

Astronomy

Jan. 28, 2014 Rise Set
Actual Time 7:11 AM EST 5:07 PM EST
Civil Twilight 6:42 AM EST 5:36 PM EST
Nautical Twilight 6:08 AM EST 6:10 PM EST
Astronomical Twilight 5:36 AM EST 6:43 PM EST
Moon 4:51 AM EST (1/28) 2:54 PM EST (1/28)
Length of Visible Light 10h 54m
Length of Day
9h 55m
Waning Crescent, 7% of the Moon is Illuminated
Jan 28
Waning Crescent
Jan 30
New
Feb 6
First Quarter
Feb 14
Full
Feb 22
Last Quarter

Hourly Weather History & Observations

Time (EST) Temp. Windchill Dew Point Humidity Pressure Visibility Wind Dir Wind Speed Gust Speed Precip Events Conditions
1:45 AM 10.4 °F -5.4 °F -4.0 °F 52% 30.11 in 10.0 mi WNW 13.8 mph - N/A   Overcast
2:45 AM 10.4 °F -5.4 °F -4.0 °F 52% 30.14 in 10.0 mi WNW 13.8 mph - N/A   Overcast
3:45 AM 8.6 °F -7.7 °F -4.0 °F 57% 30.17 in 10.0 mi WNW 13.8 mph - N/A   Clear
4:45 AM 8.6 °F -7.7 °F -4.0 °F 57% 30.20 in 10.0 mi WNW 13.8 mph - N/A   Clear
5:50 AM 6.8 °F -8.6 °F -4.0 °F 61% 30.23 in 10.0 mi WNW 11.5 mph - N/A   Clear
6:45 AM 5.0 °F -10.8 °F -2.2 °F 72% 30.27 in 15.0 mi WNW 11.5 mph - N/A   Scattered Clouds
7:45 AM 6.8 °F -8.6 °F -2.2 °F 67% 30.30 in 20.0 mi West 11.5 mph - N/A   Scattered Clouds
8:45 AM 6.8 °F -11.3 °F -2.2 °F 67% 30.32 in 20.0 mi WNW 16.1 mph - N/A   Mostly Cloudy
9:45 AM 8.6 °F -9.5 °F -4.0 °F 57% 30.33 in 20.0 mi WNW 17.3 mph 28.8 mph N/A   Mostly Cloudy
10:45 AM 10.4 °F -4.8 °F -5.8 °F 48% 30.35 in 20.0 mi WNW 12.7 mph 19.6 mph N/A   Mostly Cloudy
11:45 AM 12.2 °F -2.5 °F -5.8 °F 45% 30.33 in 20.0 mi WNW 12.7 mph 24.2 mph N/A   Partly Cloudy
12:45 PM 12.2 °F -1.8 °F -5.8 °F 45% 30.29 in 20.0 mi NW 11.5 mph - N/A   Mostly Cloudy
2:45 PM 14.0 °F 5.1 °F -7.6 °F 38% 30.27 in 15.0 mi West 5.8 mph - N/A   Mostly Cloudy
3:45 PM 14.0 °F 5.1 °F -5.8 °F 41% 30.29 in 15.0 mi West 5.8 mph - N/A   Mostly Cloudy
4:45 PM 14.0 °F 2.0 °F -5.8 °F 41% 30.29 in 10.0 mi WSW 9.2 mph - N/A   Mostly Cloudy
5:45 PM 14.0 °F 5.1 °F -5.8 °F 41% 30.28 in 10.0 mi SW 5.8 mph - N/A   Mostly Cloudy
6:45 PM 14.0 °F 5.1 °F -5.8 °F 41% 30.28 in 10.0 mi SW 5.8 mph - N/A   Mostly Cloudy
7:45 PM 14.0 °F - -4.0 °F 45% 30.29 in 10.0 mi Calm Calm - N/A   Overcast
8:45 PM 14.0 °F - -2.2 °F 49% 30.25 in 10.0 mi Calm Calm - N/A   Overcast
10:45 PM 12.2 °F 2.9 °F -0.4 °F 57% 30.22 in 10.0 mi WSW 5.8 mph - N/A   Overcast
11:45 PM 12.2 °F 2.9 °F -0.4 °F 57% 30.21 in 10.0 mi WSW 5.8 mph - N/A   Overcast